CW6876 Weather Reports


time (UTC)temp
F
wind
direction
speed
knots
gust
knots
rain 1hr
in
rain 24hr
in
rain mn
in
humidity
%
barometer
mb
20260505121539 60 197 0.0 6.1 0.00 0.00 0.00 69 1012.4
20260505120018 58 134 1.7 3.5 0.00 0.00 0.00 73 1012.1
20260505114556 57 141 0.0 3.5 0.00 0.00 0.00 76 1012.1
20260505113015 55 133 0.0 1.7 0.00 0.00 0.00 79 1012.0
20260505111554 54 186 0.0 2.6 0.00 0.00 0.00 82 1011.9
20260505101503 54 0.0 0.0 0.00 0.00 0.00 79 1011.4
20260505100043 54 0.0 0.0 0.00 0.00 0.00 79 1011.4
20260505094508 55 0.0 0.0 0.00 0.00 0.00 78 1011.3
20260505093058 56 0.0 0.0 0.00 0.00 0.00 77 1011.1
20260505091518 56 233 0.0 1.7 0.00 0.00 0.00 77 1011.1
20260505090059 56 204 0.0 0.9 0.00 0.00 0.00 76 1011.2
20260505084531 56 204 0.0 1.7 0.00 0.00 0.00 76 1011.0
20260505083109 56 184 0.0 0.0 0.00 0.00 0.00 77 1010.9
20260505081541 56 155 0.0 0.0 0.00 0.00 0.00 77 1011.1
20260505080008 56 188 0.0 0.0 0.00 0.00 0.00 77 1010.9
20260505074558 56 207 0.0 0.0 0.00 0.00 0.00 75 1010.8
20260505073027 56 205 0.0 0.0 0.00 0.00 0.00 74 1010.9
20260505071609 56 161 0.0 0.0 0.00 0.00 0.00 73 1010.9
20260505070040 57 183 0.0 0.0 0.00 0.00 0.00 71 1011.3
20260505064507 57 244 0.0 0.0 0.00 0.00 0.00 71 1011.2
20260505063049 57 208 0.0 0.0 0.00 0.00 0.00 70 1011.2
20260505061518 58 221 0.0 3.5 0.00 0.00 0.00 69 1011.2
20260505060057 58 314 0.0 3.5 0.00 0.00 0.00 68 1011.1
20260505054527 58 155 0.0 2.6 0.00 0.00 0.00 67 1011.0
20260505053103 58 192 0.0 0.0 0.00 0.00 0.00 66 1011.2
20260505051537 57 200 0.0 1.7 0.00 0.00 0.00 67 1011.2
20260505041604 59 296 0.9 3.5 0.00 0.00 0.00 60 1011.3
20260505040036 59 40 0.9 4.3 0.00 0.00 0.00 60 1011.1
20260505034503 59 160 1.7 3.5 0.00 0.00 0.00 59 1010.8
20260505033045 58 181 0.0 3.5 0.00 0.00 0.00 62 1011.0
20260505031514 57 195 0.0 1.7 0.00 0.00 0.00 64 1011.0
20260505030056 60 277 0.0 4.3 0.00 0.00 0.00 56 1011.1
20260505024521 60 348 0.0 2.6 0.00 0.00 0.00 57 1011.0
20260505023105 59 200 0.0 3.5 0.00 0.00 0.00 61 1011.0
20260505021532 59 193 0.0 1.7 0.00 0.00 0.00 57 1011.4
20260505020001 59 335 0.0 2.6 0.00 0.00 0.00 58 1011.3
20260505014542 60 139 0.0 3.5 0.00 0.00 0.00 56 1011.2
20260505013015 62 197 0.0 2.6 0.00 0.00 0.00 52 1011.2
20260505011620 61 143 0.0 2.6 0.00 0.00 0.00 53 1011.2
20260505010023 60 211 0.0 0.0 0.00 0.00 0.00 58 1011.1
20260505004608 61 211 0.0 0.0 0.00 0.00 0.00 54 1011.0
20260505003036 62 183 0.0 0.0 0.00 0.00 0.00 51 1010.9
20260505001505 63 207 0.0 2.6 0.00 0.00 0.00 49 1010.8
20260505000057 64 252 0.0 5.2 0.00 0.00 0.00 47 1010.6
20260504234514 65 186 0.0 4.3 0.00 0.00 0.00 45 1010.7
20260504233104 66 97 0.0 5.2 0.00 0.00 0.00 42 1010.7
20260504231527 66 210 1.7 5.2 0.00 0.00 0.00 42 1010.6
20260504230109 67 218 1.7 7.0 0.00 0.00 0.00 42 1010.6
20260504224532 67 159 0.9 7.8 0.00 0.00 0.00 41 1010.7
20260504223009 67 277 1.7 7.8 0.00 0.00 0.00 41 1010.7
20260504221548 67 138 0.9 6.1 0.00 0.00 0.00 40 1010.7
20260504220036 67 169 1.7 6.1 0.00 0.00 0.00 40 1010.8
20260504214615 68 186 0.0 6.1 0.00 0.00 0.00 41 1010.8
20260504213025 68 155 1.7 4.3 0.00 0.00 0.00 40 1010.8
20260504211604 68 155 0.9 6.1 0.00 0.00 0.00 41 1010.9
20260504210032 68 113 0.9 5.2 0.00 0.00 0.00 41 1010.9
20260504204610 68 205 1.7 6.1 0.00 0.00 0.00 42 1010.7
20260504203041 68 163 2.6 7.0 0.00 0.00 0.00 40 1010.8
20260504201506 68 114 1.7 7.0 0.00 0.00 0.00 42 1011.0
20260504200049 68 192 1.7 7.0 0.00 0.00 0.00 41 1011.1
20260504194522 68 136 0.9 5.2 0.00 0.00 0.00 41 1011.3
20260504193104 69 118 2.6 11.3 0.00 0.00 0.00 42 1011.3
20260504191529 68 297 1.7 7.0 0.00 0.00 0.00 40 1011.5
20260504190117 68 4 1.7 12.2 0.00 0.00 0.00 39 1011.7
20260504184552 68 159 1.7 7.8 0.00 0.00 0.00 40 1011.9
20260504183008 68 108 1.7 7.0 0.00 0.00 0.00 37 1012.2
20260504181548 68 276 3.5 13.0 0.00 0.00 0.00 41 1012.4
20260504180016 67 149 1.7 7.0 0.00 0.00 0.00 43 1012.7
20260504174554 68 314 0.0 7.8 0.00 0.00 0.00 42 1012.8
20260504173031 67 141 2.6 7.0 0.00 0.00 0.00 41 1013.0
20260504171503 67 163 1.7 6.1 0.00 0.00 0.00 40 1013.2